Ankara, Turkey

6:49 AM +03 on May 30, 2017 (GMT +0300)
Esenboga

Weather History for LTAC - November, 2013

Change the Weather History Date:

Monday, November 18, 2013

  Actual Average Record
Temperature  
Mean Temperature 34 °F -  
Max Temperature 52 °F 45 °F 68 °F (2010)
Min Temperature 17 °F 26 °F 14 °F (2016)
Degree Days  
Heating Degree Days 30    
Moisture  
Dew Point 24 °F    
Average Humidity 68    
Maximum Humidity 93    
Minimum Humidity 30    
Precipitation  
Precipitation 0.00 in - - ()
Sea Level Pressure  
Sea Level Pressure 30.20 in    
Wind  
Wind Speed 2 mph ()    
Max Wind Speed 8 mph    
Max Gust Speed -    
Visibility 6.0 miles    
Events      
Averages and records for this station are not official NWS values.
T = Trace of Precipitation, MM = Missing Value Source: Averaged Metar Reports

Daily Weather History Graph

Daily Weather History Graph

Search for Another Location

Airport or City:

Trip Planner

Search our weather history database for the weather conditions in past years. The results will help you decide how hot, cold, wet, or windy it might be!

Date:

Astronomy

Nov. 18, 2013 Rise Set
Actual Time 6:36 AM EET 4:29 PM EET
Civil Twilight 6:07 AM EET 4:58 PM EET
Nautical Twilight 5:34 AM EET 5:31 PM EET
Astronomical Twilight 5:02 AM EET 6:03 PM EET
Moon 5:15 PM EET (11/18) 7:07 AM EET (11/18)
Length of Visible Light 10h 50m
Length of Day
9h 52m
Full, 99% of the Moon is Illuminated
Nov 18
Full
Nov 25
Last Quarter
Dec 3
New
Dec 9
First Quarter
Dec 17
Full

Hourly Weather History & Observations

Time (EET) Temp. Windchill Dew Point Humidity Pressure Visibility Wind Dir Wind Speed Gust Speed Precip Events Conditions
12:20 AM 24.8 °F - 21.2 °F 86% 30.15 in - Variable 1.2 mph - N/A   Clear
12:50 AM 24.8 °F - 21.2 °F 86% 30.18 in 3.7 mi Variable 1.2 mph - N/A   Unknown
1:20 AM 24.8 °F - 23.0 °F 93% 30.18 in 3.7 mi Calm Calm - N/A   Unknown
1:50 AM 24.8 °F - 21.2 °F 86% 30.18 in 3.7 mi Variable 2.3 mph - N/A   Unknown
2:00 AM 24 °F - 21 °F 84% 30.28 in 4 mi West 2.3 mph - -   Mist
2:20 AM 23.0 °F - 19.4 °F 86% 30.18 in 4.3 mi Variable 1.2 mph - N/A   Unknown
2:50 AM 21.2 °F - 19.4 °F 93% 30.18 in 5.6 mi Variable 1.2 mph - N/A   Unknown
3:20 AM 23.0 °F - 19.4 °F 86% 30.18 in 5.6 mi Variable 1.2 mph - N/A   Unknown
3:50 AM 21.2 °F - 17.6 °F 86% 30.18 in 5.6 mi Variable 1.2 mph - N/A   Unknown
4:20 AM 21.2 °F - 17.6 °F 86% 30.18 in 5.6 mi Variable 1.2 mph - N/A   Unknown
4:50 AM 21.2 °F - 17.6 °F 86% 30.18 in 4.3 mi Variable 1.2 mph - N/A   Unknown
5:00 AM 20 °F - 19 °F 92% 30.31 in 4 mi 1.2 mph - -   Mist
5:20 AM 21.2 °F - 17.6 °F 86% 30.18 in 5.6 mi Variable 1.2 mph - N/A   Unknown
5:50 AM 19.4 °F - 17.6 °F 93% 30.18 in 5.0 mi Variable 1.2 mph - N/A   Unknown
6:20 AM 17.6 °F - 15.8 °F 93% 30.18 in 4.3 mi North 2.3 mph - N/A   Unknown
6:50 AM 19.4 °F - 15.8 °F 86% 30.18 in 3.7 mi ENE 2.3 mph - N/A   Unknown
7:20 AM 21.2 °F - 17.6 °F 86% 30.21 in 3.7 mi Variable 1.2 mph - N/A   Unknown
7:50 AM 24.8 °F - 21.2 °F 86% 30.21 in 3.7 mi Variable 1.2 mph - N/A   Unknown
8:00 AM 24 °F - 21 °F 83% 30.35 in 4 mi 1.2 mph - -   Mist
8:20 AM 26.6 °F - 23.0 °F 86% 30.21 in 3.7 mi Variable 1.2 mph - N/A   Unknown
8:50 AM 28.4 °F - 24.8 °F 86% 30.21 in - Variable 1.2 mph - N/A   Clear
9:20 AM 33.8 °F - 26.6 °F 75% 30.21 in - Variable 1.2 mph - N/A   Clear
9:50 AM 37.4 °F - 26.6 °F 65% 30.21 in - Variable 1.2 mph - N/A   Clear
10:20 AM 41.0 °F - 28.4 °F 61% 30.21 in - Calm Calm - N/A   Clear
10:50 AM 42.8 °F - 28.4 °F 57% 30.18 in - Variable 1.2 mph - N/A   Clear
11:00 AM 44 °F - 29 °F 42% 30.29 in 12 mi North 1.2 mph - -  
11:20 AM 46.4 °F 45.2 °F 28.4 °F 50% 30.18 in - North 3.5 mph - N/A   Clear
11:50 AM 46.4 °F 45.2 °F 28.4 °F 50% 30.18 in - Variable 3.5 mph - N/A   Clear
12:20 PM 48.2 °F - 30.2 °F 50% 30.18 in - Variable 3.5 mph - N/A   Clear
12:50 PM 48.2 °F - 28.4 °F 46% 30.15 in - North 4.6 mph - N/A   Clear
1:20 PM 50.0 °F - 28.4 °F 43% 30.15 in - NNE 3.5 mph - N/A   Clear
1:50 PM 50.0 °F - 28.4 °F 43% 30.15 in - Variable 2.3 mph - N/A   Clear
2:00 PM 50 °F - 28 °F 30% 30.25 in 12 mi NNE 2.3 mph - -  
2:20 PM 51.8 °F - 28.4 °F 41% 30.15 in - Variable 2.3 mph - N/A   Clear
2:50 PM 50.0 °F - 28.4 °F 43% 30.15 in - Variable 2.3 mph - N/A   Clear
3:20 PM 50.0 °F - 28.4 °F 43% 30.15 in - Variable 2.3 mph - N/A   Clear
3:50 PM 48.2 °F - 28.4 °F 46% 30.15 in - NNE 4.6 mph - N/A   Clear
4:20 PM 46.4 °F 42.9 °F 28.4 °F 50% 30.15 in - NNE 6.9 mph - N/A   Clear
4:50 PM 42.8 °F 38.0 °F 26.6 °F 53% 30.18 in - NNE 8.1 mph - N/A   Clear
5:00 PM 43 °F - 27 °F 40% 30.30 in 12 mi NNE 8.1 mph - -  
5:20 PM 41.0 °F 35.8 °F 26.6 °F 57% 30.18 in - NNE 8.1 mph - N/A   Clear
5:50 PM 39.2 °F 35.9 °F 26.6 °F 61% 30.18 in - NE 4.6 mph - N/A   Clear
6:20 PM 39.2 °F 34.2 °F 26.6 °F 61% 30.18 in - NE 6.9 mph - N/A   Clear
6:50 PM 37.4 °F 32.1 °F 26.6 °F 65% 30.18 in - North 6.9 mph - N/A   Clear
7:20 PM 37.4 °F 32.1 °F 24.8 °F 60% 30.21 in - NNE 6.9 mph - N/A   Clear
7:50 PM 35.6 °F 32.8 °F 24.8 °F 65% 30.21 in - NNE 3.5 mph - N/A   Clear
8:00 PM 35 °F - 24 °F 53% 30.35 in 12 mi NNE 3.5 mph - -  
8:20 PM 35.6 °F 32.8 °F 24.8 °F 65% 30.21 in - North 3.5 mph - N/A   Clear
8:50 PM 33.8 °F - 24.8 °F 70% 30.21 in - NNE 1.2 mph - N/A   Clear
9:20 PM 32.0 °F - 23.0 °F 69% 30.21 in - Variable 1.2 mph - N/A   Clear
9:50 PM 32.0 °F - 24.8 °F 75% 30.21 in - Variable 1.2 mph - N/A   Clear
10:20 PM 30.2 °F - 23.0 °F 75% 30.24 in - Variable 1.2 mph - N/A   Clear
10:50 PM 30.2 °F - 23.0 °F 75% 30.21 in - Variable 1.2 mph - N/A   Clear
11:00 PM 30 °F - 23 °F 67% 30.32 in 12 mi SSW 1.2 mph - -  
11:20 PM 28.4 °F - 21.2 °F 74% 30.24 in - SSW 2.3 mph - N/A   Clear
11:50 PM 30.2 °F - 23.0 °F 75% 30.24 in - Variable 2.3 mph - N/A   Clear